Weather in Novostroyevo

Russia / Kaliningrad Oblast     54°26′34″N   21°49′56″E
temp.,
°C
wind,
m/s
gust,
m/s
humid.,
%
clouds,
%
prec.,
mm/h
press.,
hPa
HPBL,
m
17 october, sun
sun1723:00+9wsw51070100 0.1 1016673
02:00+8wsw51178100 0.3 1016522
05:00+8wsw51280100 0.2 1015563
08:00+8wsw51174100 0.4 1015538
11:00+10wsw6971100 0.0 10161028
14:00+9wsw51069100 0.1 10161049
17:00+9wsw41069100 0.3 1015826
20:00+8sw5116698 0.3 1016391
18 october, mon
mon1823:00+8wsw51268100 0.0 1016527
02:00+7w399436 0.1 1016231
05:00+5w249543 0.1 101761
08:00+6wnw11896 0.1 101920
11:00+10nw3654100 0.0 10201273
14:00+11nw56415 0.0 10201727
17:00+8nw37574 0.0 1021224
20:00+4nw347420 0.0 102376
19 october, tue
tue1923:00+4wnw2276100 0.0 102511
02:00+3wsw1278100 0.0 102610
05:00+3sw227997 0.0 102620
08:00+4ssw237689 0.0 102663
11:00+8ssw3555100 0.0 1026469
14:00+9s3645100 0.0 1024629
17:00+7se4966100 0.4 1022371
20:00+8sse51168100 0.4 1021360
20 october, wed
wed2023:00+8s51279100 0.0 1019385
02:00+9s51186100 0.0 1016300
05:00+11ssw61274100 0.0 1013424
08:00+10ssw61488100 0.9 1011544
11:00+11sw71693100 3.3 1009659
14:00+15sw71482100 3.4 1007648
17:00+15ssw71682100 0.0 1005740
20:00+15sw8177988 0.0 1004703
21 october, thu
thu2123:00+16sw8187498 0.1 1003937
02:00+15sw71674100 0.1 1001763
05:00+14sw71674100 0.0 1000654
08:00+14ssw71674100 0.1 998731
11:00+17sw102064100 0.0 9971722
14:00+17wsw112052100 0.2 9972310
17:00+14wsw9165797 0.0 9991532
20:00+13sw71456100 0.0 10011480